星链-31124 (STARLINK-31124 )

导读

STARLINK-31124是美国SpaceX公司星链(Starlink)星座中的一颗低轨卫星,于2023年12月29日发射升空。星链项目计划部署数万颗卫星,旨在为全球提供高速低延迟宽带互联网服务,尤其覆盖偏远、基础设施匮乏地区。该卫星运行于近地轨道,通过星间链路与地面系统配合,为用户提供稳定网络连接,助力星链全球覆盖网络的构建,推动卫星互联网的普及应用。

基本信息
目录编号:
58674
目录名称:
STARLINK-31124
国际标识:
2023-211H
轨道中心:
EARTH
卫星名称:
星链-31124
卫星全名:
星链-31124 (STARLINK-31124 )
卫星状态:
在轨 (已飞行901 天)
发射日期:
2023-12-29 UTC
国别 :
美国 (US)
星等 :
--
轨道信息
数据来源 国际轨道数据 AOE轨道数据
星历时间 2026-06-17T06:06:08+0800
10小时前
查看轨道信息
2026-06-16T07:00:00+0800
1天前
查看轨道信息
半长轴 6861.191km 6861.202km
偏心率 0.000119 0.0001832
轨道倾角 43.001° 43.000°
近地点辐角 278.834° 216.605°
升交点赤经 244.626° 250.063°
平近点角 81.237° 243.672°
近地点 482.237km 481.808km
远地点 483.871km 484.322km
周期 94.267分钟 94.267分钟
每日圈数 15.275785 15.275749
详细信息
固有亮度:
5
最大亮度:
0.3
卫星平台:
Starlink v2.0 mini
覆盖范围:
全球
运营商:
太空探索技术公司
运营商所在国:
美国
制造商(研发单位):
太空探索技术公司
制造商所在国:
美国
使用方式:
暂无
卫星简介
星链(Starlink)计划是由太空探索技术公司(SpaceX)提出的一个巨型低轨卫星互联网星座项目,计划在2019年至2024年间在太空搭建由约1.2万颗卫星组成的“星链”网络,其中1584颗将部署在地球上空550千米处的近地轨道,并从2020年开始工作。该卫星仍在工作。
2D轨道图
3D轨道图
轨道高度分析图
轨道倾角分析图
轨道综合分析图
查看轨道综合分析图